COSMOS 1275 DEB

Satellite information

Favourite Embed

Satellite Type and Status

DEBRISIN ORBIT

Key statistics

Satellite COSMOS 1275 DEB at a glance.

Uptime

16162

Days in orbit

Revolutions

≈ 13.8

Per day

Orbit

LEO

Low Earth Orbit

Inclination

83.1

Latest

Satellite identification and parameters

Extended collection of information and parameters for COSMOS 1275 DEB.

Object identification

Identified? True

Debris? True

Object name: COSMOS 1275 DEB

International designator: 1981-053GT

Object number (NORAD): 13799

Object ID (CCSDS): 13799

Country: COMMONWEALTH OF INDEPENDENT STATES (CIS)

Current information (Y/N): Y

RCS size: SMALL

Orbital parameters

Period: 104.421 minutes

Inclination: 83.1356 deg

SMA: 7345.452 km

Apoapsis: 1029.955 km

Periapsis: 904.678 km

RAAN: 200.0575 deg

Eccentricy: 0.00852751

Argument of periapsis: 217.0209 deg

Mean anomaly: 299.5047 deg

Mean motion: 13.79034063 rev/day

Mean motion (dot): 0.00001828 rev/day2

B* drag term: 0.0017285123 1/REarth

Two-line elements (TLE)

Creation date: Sept. 2, 2025, 11:42 p.m.

Reference frame: TEME

Reference center: EARTH

Epoch: Sept. 2, 2025, 8:52 a.m. UTC

TLE line 0: 0 COSMOS 1275 DEB

TLE line 1: 1 13799U 81053GT 25245.36946698 .00001828 00000-0 17285-2 0 9999

TLE line 2: 2 13799 83.1356 200.0575 0085275 217.0209 299.5047 13.79034063144320

Live tracking on map

Real-time ground track for satellite COSMOS 1275 DEB.

In-orbit conjunctions

A list of the most updated potential collisions computed for object COSMOS 1275 DEB.

Target Orbit TCA Probability of collision Miss distance Type
DELTA 1 R/B(+CAMEO) SSO 2025-01-14 22:48:59 0.0002304183 388.0 (m) ROCKET BODY
FENGYUN 1C DEB SSO 2024-07-17 18:30:19 0.0002321909 60.0 (m) DEBRIS

Associated space launch

Navigation satellite providing location information for the Tsiklon-B navigation system

COSMOS 1275 DEB was lifted into orbit during the mission ‘Kosmos-3M | Parus 27’, on board a Kosmos-3M space rocket.

The launch took place on June 4, 1981, 3:41 p.m. from 132/2.

For more information about the launch, click the button.

Launch to space Kosmos-3M | Parus 27
Kosmos-3M | Parus 27

Agency: N/A

Status: Launch Successful

Launch date: June 4, 1981, 3:41 p.m. UTC

Rocket: Kosmos-3M

Launch pad: 132/2

Location: Plesetsk Cosmodrome, Russian Federation

...

Latest news about this satellite

There are no fresh news available about this satellite. Check back as we update our databases every day.


Newsletter sign-up

Weekly statistics, charts and insights to help you stay on top of the space industry.